METOP-C (43689 NORAD) Tracking and Keplerian Element Data

This shows tracking and keplerian element data for the satellite.

Feedback or suggestion? Click here.




ElementValue
Catalog43689
NameMETOP-C
Epoch Orbit3591
Epoch Day198.84095101
Epoch Year2019
RAAN258.0744
Inclination98.7028
Eccentricity0.0001449
Argument of Perigee221.578
Mean Anonmoly138.5287
Mean Motion14.21490522
Decay Rate-4.4E-07
L11 43689U 18087A 19198.84095101 -.00000044 00000-0 00000-0 0 9999
L22 43689 98.7028 258.0744 0001449 221.5780 138.5287 14.21490522 35911

Live tracking and technical data element details for METOP-C (NORAD 43689). METOP-C can be tracked NOW for your location showing map with azimuth and elevation plus other details from your city location.

Track the satellite on the map from your city or location and see movement details for azimuth, elevation, latitude, longitude, range, height, and movement on the map or in text.







IsCatalogInMostPopularTable: catalog: 43689, numindb: 170
Update: records affected: 1



GetName: 43689 METOP-C

Hit Count: updated at: Fri, 19 Jul 2019 23:23:09 GMT